When you browse on this site, cookies collect data to enhance your experience and personalize the content and advertising you see.
Visit our Privacy Policy to learn more. By continuing to use the site, you agree to this use of cookies and data.
  • In Portugal
  • List of Countries
  • For 7 days
  • Water Temperature
  • Weather Map
  • Weather Widgets
  • user-avatar
    Login

    Hourly Weather Atar

    Today, 7 April, Tuesday

    Time Temperature Precipitation Wind Pressure Humidity
    00:00 +27°C° 0 mm 4 mps 728 mmHg 21%
    01:00 +26°C° 0 mm 4 mps 727 mmHg 21%
    02:00 +26°C° 0 mm 4 mps 727 mmHg 22%
    03:00 +25°C° 0 mm 5 mps 727 mmHg 23%
    04:00 +25°C° 0 mm 5 mps 727 mmHg 23%
    05:00 +23°C° 0 mm 5 mps 727 mmHg 24%
    06:00 +24°C° 0 mm 6 mps 728 mmHg 24%
    07:00 +27°C° 0 mm 7 mps 729 mmHg 24%
    08:00 +28°C° 0 mm 8 mps 729 mmHg 25%
    09:00 +32°C° 0 mm 7 mps 729 mmHg 21%
    10:00 +34°C° 0 mm 7 mps 729 mmHg 16%
    11:00 +38°C° 0 mm 6 mps 729 mmHg 12%
    12:00 +39°C° 0 mm 6 mps 728 mmHg 11%
    13:00 +40°C° 0 mm 5 mps 728 mmHg 10%
    14:00 +41°C° 0 mm 4 mps 727 mmHg 9%
    15:00 +40°C° 0 mm 4 mps 727 mmHg 9%
    16:00 +40°C° 0 mm 5 mps 726 mmHg 8%
    17:00 +40°C° 0 mm 5 mps 726 mmHg 8%
    18:00 +36°C° 0 mm 5 mps 726 mmHg 10%
    19:00 +34°C° 0 mm 5 mps 727 mmHg 12%
    20:00 +30°C° 0 mm 4 mps 727 mmHg 13%
    21:00 +30°C° 0 mm 4 mps 727 mmHg 14%
    22:00 +29°C° 0 mm 4 mps 727 mmHg 15%
    23:00 +28°C° 0 mm 4 mps 727 mmHg 16%

    Tomorrow, 8 April, Wednesday

    Time Temperature Precipitation Wind Pressure Humidity
    00:00 +27°C° 0 mm 4 mps 727 mmHg 17%
    01:00 +27°C° 0 mm 4 mps 727 mmHg 18%
    02:00 +26°C° 0 mm 4 mps 727 mmHg 19%
    03:00 +26°C° 0 mm 4 mps 727 mmHg 19%
    04:00 +25°C° 0 mm 4 mps 727 mmHg 20%
    05:00 +25°C° 0 mm 4 mps 726 mmHg 20%
    06:00 +26°C° 0 mm 5 mps 727 mmHg 19%
    07:00 +28°C° 0 mm 6 mps 728 mmHg 18%
    08:00 +29°C° 0 mm 6 mps 728 mmHg 17%
    09:00 +33°C° 0 mm 6 mps 728 mmHg 15%
    10:00 +36°C° 0 mm 6 mps 728 mmHg 13%
    11:00 +39°C° 0 mm 6 mps 728 mmHg 10%
    12:00 +40°C° 0 mm 5 mps 727 mmHg 9%
    13:00 +40°C° 0 mm 3 mps 727 mmHg 8%
    14:00 +41°C° 0 mm 2 mps 726 mmHg 6%
    15:00 +42°C° 0 mm 3 mps 726 mmHg 6%
    16:00 +42°C° 0 mm 4 mps 725 mmHg 6%
    17:00 +41°C° 0 mm 4 mps 725 mmHg 6%
    18:00 +37°C° 0 mm 4 mps 725 mmHg 8%
    19:00 +35°C° 0 mm 3 mps 726 mmHg 10%
    20:00 +31°C° 0 mm 3 mps 726 mmHg 12%
    21:00 +30°C° 0 mm 3 mps 726 mmHg 13%
    22:00 +29°C° 0 mm 3 mps 726 mmHg 14%
    23:00 +28°C° 0 mm 3 mps 726 mmHg 15%

    Day after tomorrow, 9 April, Thursday

    Time Temperature Precipitation Wind Pressure Humidity
    00:00 +28°C° 0 mm 3 mps 726 mmHg 16%
    01:00 +28°C° 0 mm 4 mps 726 mmHg 17%
    02:00 +27°C° 0 mm 4 mps 725 mmHg 18%
    03:00 +26°C° 0 mm 4 mps 725 mmHg 20%
    04:00 +26°C° 0 mm 4 mps 726 mmHg 21%
    05:00 +25°C° 0 mm 5 mps 726 mmHg 23%
    06:00 +27°C° 0 mm 5 mps 726 mmHg 20%
    07:00 +29°C° 0 mm 6 mps 727 mmHg 17%
    08:00 +33°C° 0 mm 6 mps 728 mmHg 14%
    09:00 +35°C° 0 mm 6 mps 727 mmHg 11%
    10:00 +39°C° 0 mm 7 mps 727 mmHg 8%
    11:00 +43°C° 0 mm 7 mps 727 mmHg 6%
    12:00 +42°C° 0 mm 6 mps 726 mmHg 5%
    13:00 +42°C° 0 mm 5 mps 726 mmHg 5%
    14:00 +43°C° 0 mm 4 mps 725 mmHg 5%
    15:00 +43°C° 0 mm 4 mps 725 mmHg 5%
    16:00 +42°C° 0 mm 4 mps 724 mmHg 5%
    17:00 +42°C° 0 mm 3 mps 724 mmHg 5%
    18:00 +38°C° 0 mm 4 mps 724 mmHg 6%
    19:00 +36°C° 0 mm 4 mps 725 mmHg 7%
    20:00 +33°C° 0 mm 4 mps 725 mmHg 9%
    21:00 +33°C° 0 mm 4 mps 725 mmHg 9%
    22:00 +32°C° 0 mm 4 mps 725 mmHg 9%
    23:00 +30°C° 0 mm 4 mps 725 mmHg 10%

    10 April, Friday

    Time Temperature Precipitation Wind Pressure Humidity
    00:00 +30°C° 0 mm 4 mps 725 mmHg 10%
    01:00 +29°C° 0 mm 4 mps 725 mmHg 11%
    02:00 +29°C° 0 mm 4 mps 725 mmHg 11%
    03:00 +28°C° 0 mm 4 mps 725 mmHg 12%
    04:00 +28°C° 0 mm 4 mps 725 mmHg 12%
    05:00 +27°C° 0 mm 4 mps 725 mmHg 13%
    06:00 +29°C° 0 mm 5 mps 726 mmHg 12%
    07:00 +32°C° 0 mm 5 mps 726 mmHg 11%
    08:00 +34°C° 0 mm 6 mps 727 mmHg 10%
    09:00 +36°C° 0 mm 6 mps 727 mmHg 9%
    10:00 +40°C° 0 mm 6 mps 727 mmHg 8%
    11:00 +42°C° 0 mm 6 mps 727 mmHg 6%
    12:00 +44°C° 0 mm 6 mps 726 mmHg 6%
    13:00 +44°C° 0 mm 6 mps 725 mmHg 6%
    14:00 +45°C° 0 mm 5 mps 724 mmHg 5%
    15:00 +43°C° 0 mm 5 mps 724 mmHg 5%
    16:00 +44°C° 0 mm 6 mps 724 mmHg 5%
    17:00 +42°C° 0 mm 6 mps 724 mmHg 6%
    18:00 +40°C° 0 mm 5 mps 724 mmHg 7%
    19:00 +36°C° 0 mm 4 mps 724 mmHg 8%
    20:00 +34°C° 0 mm 4 mps 725 mmHg 10%
    21:00 +33°C° 0 mm 3 mps 725 mmHg 10%
    22:00 +31°C° 0 mm 3 mps 725 mmHg 10%
    23:00 +30°C° 0 mm 3 mps 725 mmHg 10%

    11 April, Saturday

    Time Temperature Precipitation Wind Pressure Humidity
    00:00 +30°C° 0 mm 3 mps 725 mmHg 11%
    01:00 +29°C° 0 mm 4 mps 724 mmHg 11%
    02:00 +29°C° 0 mm 4 mps 724 mmHg 12%
    03:00 +28°C° 0 mm 5 mps 724 mmHg 14%
    04:00 +27°C° 0 mm 5 mps 724 mmHg 17%
    05:00 +26°C° 0 mm 6 mps 724 mmHg 20%
    06:00 +28°C° 0 mm 7 mps 725 mmHg 19%
    07:00 +30°C° 0 mm 7 mps 725 mmHg 19%
    08:00 +33°C° 0 mm 8 mps 726 mmHg 19%
    09:00 +35°C° 0 mm 8 mps 726 mmHg 15%
    10:00 +39°C° 0 mm 8 mps 726 mmHg 12%
    11:00 +43°C° 0 mm 8 mps 726 mmHg 8%
    12:00 +44°C° 0 mm 6 mps 725 mmHg 7%
    13:00 +45°C° 0 mm 5 mps 725 mmHg 6%
    14:00 +44°C° 0 mm 3 mps 724 mmHg 5%
    15:00 +44°C° 0 mm 3 mps 724 mmHg 5%
    16:00 +44°C° 0 mm 3 mps 723 mmHg 6%
    17:00 +43°C° 0 mm 4 mps 723 mmHg 6%
    18:00 +41°C° 0 mm 4 mps 723 mmHg 7%
    19:00 +37°C° 0 mm 4 mps 724 mmHg 8%
    20:00 +34°C° 0 mm 4 mps 724 mmHg 9%
    21:00 +33°C° 0 mm 4 mps 724 mmHg 10%
    22:00 +33°C° 0 mm 4 mps 724 mmHg 11%
    23:00 +32°C° 0 mm 4 mps 724 mmHg 12%

    12 April, Sunday

    Time Temperature Precipitation Wind Pressure Humidity
    00:00 +30°C° 0 mm 4 mps 724 mmHg 13%
    01:00 +30°C° 0 mm 4 mps 724 mmHg 14%
    02:00 +29°C° 0 mm 4 mps 723 mmHg 15%
    03:00 +28°C° 0 mm 4 mps 724 mmHg 17%
    04:00 +27°C° 0 mm 4 mps 724 mmHg 18%
    05:00 +27°C° 0 mm 5 mps 724 mmHg 20%
    06:00 +29°C° 0 mm 6 mps 724 mmHg 19%
    07:00 +32°C° 0 mm 6 mps 725 mmHg 18%
    08:00 +34°C° 0 mm 7 mps 725 mmHg 17%
    09:00 +36°C° 0 mm 7 mps 725 mmHg 14%
    10:00 +40°C° 0 mm 6 mps 725 mmHg 11%
    11:00 +44°C° 0 mm 6 mps 725 mmHg 9%
    12:00 +43°C° 0 mm 5 mps 725 mmHg 8%
    13:00 +44°C° 0 mm 3 mps 724 mmHg 7%
    14:00 +45°C° 0 mm 2 mps 723 mmHg 6%
    15:00 +43°C° 0 mm 2 mps 723 mmHg 6%
    16:00 +44°C° 0 mm 3 mps 723 mmHg 6%
    17:00 +44°C° 0 mm 3 mps 722 mmHg 6%
    18:00 +40°C° 0 mm 3 mps 722 mmHg 8%
    19:00 +37°C° 0 mm 3 mps 723 mmHg 10%
    20:00 +34°C° 0 mm 4 mps 723 mmHg 13%
    21:00 +33°C° 0 mm 3 mps 723 mmHg 14%
    22:00 +31°C° 0 mm 3 mps 723 mmHg 15%
    23:00 +31°C° 0 mm 3 mps 724 mmHg 16%
    Show more